User: anonymous   Login
Location: Unspecified
(0.0000°N, 0.0000°E)
Time: 02:10:31
(UTC+00:00)
Language:

FLOCK 4Q 4 - Orbit

View from above orbital plane
View from above orbital plane
View from above satellite
View from above satellite

Ground track
Ground track

The orbit is defined by the following mean orbital elements,

1 58327U          26145.19975531 +.00000000 +00000-0 +40215-3 0 00001
2 58327  97.3821 232.4214 0005084 229.8652 130.2153 15.47515891    07
Epoch (UTC): 25 May 2026 04:47:38
Eccentricity: 0.0005084
inclination: 97.3821°
perigee height: 421 km
apogee height: 427 km
right ascension of ascending node: 232.4214°
argument of perigee: 229.8652°
revolutions per day: 15.47515891
mean anomaly at epoch: 130.2153°

The dashed part of the orbit path shows where the satellite is in the earth's shadow,  

DLR